Date,TemperatureHighF,TemperatureAvgF,TemperatureLowF,DewpointHighF,DewpointAvgF,DewpointLowF,HumidityHigh,HumidityAvg,HumidityLow,PressureMaxIn,PressureMinIn,WindSpeedMaxMPH,WindSpeedAvgMPH,GustSpeedMaxMPH,PrecipitationSumIn
2013-1-1,12,7,-1,7,1,-5,92,77,70,30.27,30.16,8,3,10,0.00
2013-1-2,23,16,5,19,10,1,87,79,71,30.19,30.04,11,5,14,0.00
2013-1-3,26,20,10,24,16,6,91,85,78,30.27,30.08,15,7,18,0.00
2013-1-4,31,19,8,22,14,5,88,81,66,30.23,30.12,19,9,23,0.00
2013-1-5,34,26,16,32,24,11,93,89,81,30.18,29.89,22,10,25,0.20
2013-1-6,31,19,11,27,15,8,88,84,78,30.29,29.89,20,9,25,0.00
2013-1-7,36,24,12,27,19,8,88,81,67,30.27,30.03,23,12,28,0.01
2013-1-8,37,30,18,32,26,17,100,86,78,30.07,29.93,23,10,26,0.00
2013-1-9,39,32,22,32,26,19,87,79,62,30.44,29.94,22,8,28,0.00
2013-1-10,37,29,18,34,26,15,96,89,76,30.44,29.78,23,8,27,0.32
2013-1-11,45,39,34,43,38,34,100,97,90,29.78,29.56,19,9,24,0.04
2013-1-12,48,32,20,44,27,17,91,82,74,30.00,29.57,19,12,37,0.00
2013-1-13,20,15,10,18,10,5,90,78,71,30.25,29.89,17,11,24,0.00
2013-1-14,25,14,6,13,8,2,89,76,54,30.45,30.25,12,5,15,0.00
2013-1-15,28,18,9,17,12,6,87,77,59,30.41,30.09,14,5,15,0.00
2013-1-16,34,26,14,32,21,9,93,79,68,30.09,29.80,21,10,26,0.00
2013-1-17,32,23,16,28,14,8,86,72,55,30.37,30.06,19,8,22,0.00
2013-1-18,43,33,19,34,26,15,87,77,68,30.39,29.83,34,16,40,0.00
2013-1-19,47,36,16,35,28,8,83,75,59,30.00,29.67,41,17,47,0.00
2013-1-20,16,11,7,6,3,0,79,68,57,30.31,30.00,32,12,37,0.00
2013-1-21,10,4,0,5,-5,-8,80,67,55,30.30,30.17,26,15,33,0.00
2013-1-22,10,4,-5,-1,-5,-11,77,66,54,30.41,30.33,13,6,18,0.00
2013-1-23,21,13,6,15,7,-2,86,74,63,30.43,30.11,21,9,28,0.00
2013-1-24,19,10,1,9,0,-6,72,66,53,30.65,30.32,15,6,17,0.00
2013-1-25,31,21,14,19,12,7,87,71,55,30.29,29.93,26,12,31,0.00
2013-1-26,26,18,6,16,9,2,83,69,51,30.38,30.21,14,6,16,0.00
2013-1-27,35,29,24,34,24,14,100,83,66,30.31,29.79,18,12,23,0.08
2013-1-28,41,38,34,40,36,33,97,94,85,29.90,29.67,17,7,19,0.37
2013-1-29,57,44,34,55,43,33,98,96,92,29.66,29.40,18,7,36,0.74
2013-1-30,34,26,15,33,25,10,96,92,80,29.65,29.28,32,14,34,0.14
2013-1-31,15,7,-2,12,2,-7,87,80,75,30.22,29.66,24,14,29,0.00
2013-2-1,10,0,-7,8,-5,-12,89,77,66,30.37,30.12,15,8,18,0.00
2013-2-2,19,11,4,16,8,0,92,85,77,30.11,30.01,13,5,16,0.00
2013-2-3,19,16,10,16,11,7,91,83,70,30.06,29.94,21,7,24,0.00
2013-2-4,20,15,2,18,12,-2,92,87,79,29.98,29.84,19,7,20,0.01
2013-2-5,30,21,2,26,17,-2,92,87,79,30.08,29.79,24,8,24,0.01
2013-2-6,36,24,2,32,20,-1,93,86,78,30.17,30.02,17,6,20,0.08
2013-2-7,34,32,26,33,31,24,96,94,88,30.05,29.86,15,6,19,0.40
2013-2-8,29,20,3,23,16,0,91,85,69,30.35,30.05,12,4,18,0.05
2013-2-9,30,24,3,27,21,0,94,90,86,30.36,30.01,24,10,29,0.00
2013-2-10,42,35,22,41,33,21,98,94,76,30.01,29.36,28,16,42,0.46
2013-2-11,35,29,23,32,24,18,89,81,77,30.02,29.41,40,18,44,0.00
2013-2-12,33,26,22,27,21,18,90,83,72,30.08,29.85,19,8,24,0.00
2013-2-13,38,32,22,32,28,21,93,86,75,29.84,29.64,13,5,14,0.00
2013-2-14,36,34,29,32,29,25,89,82,72,29.97,29.56,28,12,32,0.01
2013-2-15,29,21,14,25,13,7,83,71,59,30.21,29.98,20,12,24,0.00
2013-2-16,19,14,10,9,7,5,82,75,65,30.21,30.14,15,7,21,0.00
2013-2-17,30,20,8,23,14,4,86,77,68,30.18,29.86,20,9,24,0.00
2013-2-18,49,33,18,40,28,14,95,83,71,29.85,29.45,24,13,27,0.13
2013-2-19,17,9,4,14,5,-1,88,83,78,30.26,29.62,28,18,36,0.00
2013-2-20,20,11,4,13,5,-2,85,77,71,30.40,30.27,15,7,20,0.00
2013-2-21,26,18,8,24,15,5,94,87,81,30.40,29.93,28,11,34,0.00
2013-2-22,28,26,23,27,24,21,94,92,89,29.93,29.76,19,9,28,0.03
2013-2-23,26,22,18,21,17,13,90,83,71,29.96,29.87,14,8,16,0.00
2013-2-24,31,20,6,23,15,3,92,82,68,30.11,29.95,8,3,9,0.00
2013-2-25,36,26,13,30,22,11,93,85,77,30.14,29.93,13,4,16,0.00
2013-2-26,33,31,29,29,27,26,95,86,78,29.93,29.55,31,18,39,0.00
2013-2-27,32,30,28,30,28,26,96,94,92,29.77,29.59,14,8,18,0.09
2013-2-28,34,31,27,30,28,21,95,87,80,30.08,29.77,13,5,17,0.02
2013-3-1,27,22,11,21,18,9,92,83,76,30.23,30.09,18,8,22,0.00
2013-3-2,24,16,7,15,9,4,90,77,63,30.25,30.16,11,4,14,0.00
2013-3-3,31,17,5,14,8,1,86,70,43,30.17,30.06,7,3,9,0.00
2013-3-4,30,24,16,25,19,11,87,81,75,30.09,29.94,21,12,25,0.00
2013-3-5,30,28,23,29,26,21,94,92,85,30.09,29.82,14,7,18,0.17
2013-3-6,29,26,21,24,22,19,92,85,80,30.31,30.10,19,11,23,0.05
2013-3-7,35,24,13,24,19,10,91,82,63,30.39,30.30,10,2,10,0.12
2013-3-8,33,19,5,28,16,2,92,88,81,30.42,30.23,16,6,20,0.00
2013-3-9,36,34,29,35,32,25,95,90,83,30.23,29.75,22,12,29,0.42
2013-3-10,39,36,34,38,36,33,97,97,94,29.74,29.55,19,6,27,0.89
2013-3-11,34,32,30,33,30,26,98,94,87,29.79,29.54,20,9,27,0.01
2013-3-12,32,27,23,28,22,18,90,83,72,30.04,29.79,22,12,31,0.00
2013-3-13,30,24,19,19,16,14,86,72,54,30.32,30.04,24,12,26,0.00
2013-3-14,33,26,20,31,23,16,94,88,75,30.32,30.05,14,6,19,0.01
2013-3-15,34,31,25,33,29,24,96,94,90,30.04,29.73,18,5,23,0.09
2013-3-16,32,29,26,31,25,21,96,85,77,30.12,29.72,15,8,18,0.00
2013-3-17,32,26,20,26,20,13,87,79,72,30.20,29.95,18,11,22,0.01
2013-3-18,32,26,17,31,23,11,94,88,78,29.95,29.58,21,11,36,0.08
2013-3-19,27,19,11,15,11,6,82,70,58,30.11,29.79,28,15,34,0.00
2013-3-20,20,14,8,12,6,1,78,71,66,30.14,30.05,25,17,29,0.00
2013-3-21,26,15,7,16,9,3,86,77,62,30.09,30.01,9,5,11,0.00
2013-3-22,32,23,13,24,16,9,87,75,54,30.06,30.01,7,3,9,0.00
2013-3-23,36,30,21,26,23,18,92,76,56,30.10,30.01,10,4,12,0.00
2013-3-24,31,30,28,28,26,23,94,88,79,30.02,29.74,24,10,26,0.00
2013-3-25,34,30,26,28,24,19,82,77,71,30.09,29.80,17,8,22,0.00
2013-3-26,39,33,27,30,26,22,81,74,62,30.25,30.09,16,8,18,0.00
2013-3-27,41,35,30,30,26,20,87,71,46,30.31,30.25,12,4,12,0.00
2013-3-28,46,37,27,33,27,22,85,69,46,30.33,30.24,8,2,10,0.00
2013-3-29,52,40,30,36,31,27,92,71,47,30.28,30.17,7,2,9,0.00
2013-3-30,54,43,32,44,36,28,95,79,64,30.18,29.79,25,11,28,0.00
2013-3-31,49,40,32,42,35,23,95,81,66,29.90,29.71,24,12,33,0.00
2013-4-1,36,30,25,24,20,16,79,66,53,30.19,29.91,19,11,26,0.00
2013-4-2,40,31,22,24,20,17,84,66,45,30.30,30.19,18,9,24,0.00
2013-4-3,44,32,21,28,21,17,86,67,39,30.42,30.25,9,4,15,0.00
2013-4-4,58,42,27,40,30,21,83,65,41,30.24,29.94,19,9,22,0.00
2013-4-5,50,41,31,34,29,24,83,64,39,30.18,30.02,19,6,24,0.00
2013-4-6,66,48,34,49,36,22,92,65,45,30.02,29.52,31,16,39,0.04
2013-4-7,60,48,38,44,39,35,87,73,47,29.89,29.60,20,8,30,0.00
2013-4-8,66,52,39,55,46,36,97,83,64,29.87,29.54,16,8,19,0.77
2013-4-9,47,43,38,46,41,37,97,94,91,29.90,29.76,27,14,33,1.85
2013-4-10,39,37,33,38,35,32,95,94,92,30.02,29.79,32,15,34,1.64
2013-4-11,43,40,36,42,38,35,96,95,93,29.67,29.51,40,11,48,0.27
2013-4-12,40,36,34,38,33,29,95,88,78,29.81,29.51,19,9,23,0.03
2013-4-13,43,36,32,33,29,27,87,76,61,29.94,29.80,19,8,24,0.00
2013-4-14,66,46,33,55,40,29,91,78,62,29.95,29.49,27,16,32,0.08
2013-4-15,59,48,38,51,43,35,96,84,47,29.94,29.57,20,9,28,0.50
2013-4-16,54,43,33,39,35,30,93,73,47,30.21,29.93,15,8,19,0.00
2013-4-17,45,40,39,43,35,-100,96,88,76,30.23,29.76,27,12,34,1.83
2013-4-18,60,48,36,59,46,31,98,94,83,29.80,29.30,42,14,50,1.24
2013-4-19,38,35,32,31,30,27,90,81,71,29.92,29.40,29,15,36,0.01
2013-4-20,45,36,28,30,26,21,90,69,40,30.33,29.93,12,4,16,0.00
2013-4-21,53,43,32,42,34,27,85,73,59,30.42,30.20,26,15,31,0.00
2013-4-22,66,54,42,46,40,36,81,62,41,30.20,29.93,21,12,30,0.00
2013-4-23,53,42,35,47,38,32,95,86,73,29.96,29.86,21,9,26,0.31
2013-4-24,51,42,33,33,30,26,83,65,41,30.03,29.94,17,10,23,0.00
2013-4-25,51,42,35,37,32,27,91,71,40,30.24,29.99,21,10,28,0.10
2013-4-26,67,52,35,49,40,29,84,65,46,30.23,30.12,30,14,36,0.00
2013-4-27,64,54,41,49,45,40,95,74,54,30.19,29.93,15,6,22,0.00
2013-4-28,70,56,41,53,47,38,94,74,47,29.93,29.72,8,3,11,0.00
2013-4-29,76,62,51,59,53,47,93,76,51,29.80,29.61,24,11,30,0.00
2013-4-30,86,72,58,61,55,49,92,60,29,29.79,29.59,29,16,36,0.00
2013-5-1,83,69,51,58,53,42,85,59,32,30.09,29.80,15,7,21,0.00
2013-5-2,54,46,37,43,38,-100,92,75,60,30.19,30.06,25,-3,27,0.02
2013-5-3,49,41,35,48,39,33,96,94,91,30.15,29.90,19,11,23,0.88
2013-5-4,68,58,49,60,52,47,96,83,60,29.97,29.89,17,9,23,0.00
2013-5-5,72,60,47,54,50,45,97,71,43,29.98,29.90,14,6,19,0.00
2013-5-6,73,62,44,51,46,42,93,60,35,30.00,29.91,16,5,17,0.00
2013-5-7,78,66,54,48,44,39,80,50,25,29.98,29.88,9,3,13,0.00
2013-5-8,80,66,47,55,47,43,88,55,29,29.96,29.87,15,3,16,0.00
2013-5-9,68,61,51,61,57,49,96,87,75,29.87,29.72,17,6,27,1.95
2013-5-10,53,48,44,49,46,42,95,91,84,29.94,29.75,19,9,24,0.05
2013-5-11,54,48,39,50,38,28,97,72,45,30.04,29.80,33,15,40,0.02
2013-5-12,54,44,34,32,29,27,79,58,37,30.11,30.03,21,11,26,0.00
2013-5-13,66,52,33,42,33,28,86,52,29,30.12,29.85,14,5,20,0.00
2013-5-14,92,72,52,62,51,40,74,51,23,29.84,29.50,22,12,25,0.00
2013-5-15,79,70,59,58,49,43,67,48,29,29.77,29.54,16,6,21,0.00
2013-5-16,84,70,51,51,46,43,83,47,24,29.85,29.76,16,4,19,0.00
2013-5-17,76,65,58,57,50,44,70,60,51,29.93,29.82,19,10,22,0.00
2013-5-18,83,69,54,63,56,47,83,65,44,29.95,29.81,17,8,22,0.00
2013-5-19,87,69,60,68,61,57,93,76,48,29.85,29.52,33,13,49,0.31
2013-5-20,79,70,61,66,62,59,95,77,56,29.68,29.53,25,14,42,0.35
2013-5-21,75,68,60,63,59,57,94,75,56,29.59,29.51,23,11,27,0.00
2013-5-22,70,61,56,59,56,53,95,84,57,29.67,29.53,14,5,20,0.02
2013-5-23,63,56,49,57,48,40,94,77,48,30.22,29.68,25,9,27,0.12
2013-5-24,66,53,37,44,37,34,88,60,32,30.39,30.22,13,6,17,0.00
2013-5-25,55,51,46,46,43,39,84,74,62,30.31,30.22,15,7,19,0.13
2013-5-26,57,52,43,53,46,39,94,83,65,30.23,30.04,27,10,31,0.39
2013-5-27,60,56,51,59,55,50,98,96,94,30.03,29.77,19,12,22,0.01
2013-5-28,75,64,54,71,62,53,99,95,88,29.78,29.59,19,6,20,0.37
2013-5-29,82,71,61,72,65,58,97,81,67,29.82,29.66,24,9,25,0.00
2013-5-30,84,72,62,70,66,60,94,82,57,29.76,29.57,30,18,39,0.37
2013-5-31,74,67,62,66,63,60,95,87,67,29.70,29.56,21,13,31,0.00
2013-6-1,77,68,62,66,62,57,96,82,51,29.65,29.55,20,10,24,0.00
2013-6-2,61,56,49,58,48,43,93,75,56,29.97,29.65,21,7,25,0.00
2013-6-3,70,59,46,50,46,43,91,67,40,30.05,29.94,11,4,13,0.00
2013-6-4,70,61,54,57,49,40,87,67,34,30.10,29.97,16,6,25,0.03
2013-6-5,67,58,53,59,54,49,95,85,70,30.02,29.86,16,8,18,0.26
2013-6-6,61,57,54,57,54,51,94,89,82,29.89,29.82,14,6,14,0.09
2013-6-7,70,61,54,57,53,50,93,77,52,29.92,29.84,8,3,12,0.00
2013-6-8,74,64,52,52,49,45,92,62,41,29.91,29.85,12,6,16,0.00
2013-6-9,77,67,59,62,56,46,93,71,56,29.88,29.70,24,11,30,0.09
2013-6-10,78,67,56,65,60,55,97,80,56,29.79,29.68,13,4,16,0.00
2013-6-11,84,73,59,66,62,57,95,72,49,29.83,29.70,19,4,23,0.00
2013-6-12,84,74,66,75,68,64,93,81,67,29.81,29.49,23,7,30,0.21
2013-6-13,79,69,59,63,58,55,93,69,45,29.95,29.62,16,5,21,0.00
2013-6-14,77,67,53,60,55,50,91,68,45,30.06,29.88,12,5,15,0.00
2013-6-15,82,71,61,69,64,57,93,79,61,29.94,29.73,25,9,33,0.08
2013-6-16,84,74,65,67,59,52,93,63,34,29.83,29.78,20,6,25,0.00
2013-6-17,87,76,63,61,57,52,74,53,33,29.84,29.75,18,6,22,0.00
2013-6-18,76,66,57,58,54,50,85,67,53,29.99,29.83,17,9,18,0.00
2013-6-19,80,67,51,59,52,44,81,61,43,30.06,29.95,10,4,11,0.00
2013-6-20,88,74,57,64,59,52,85,61,43,30.04,29.91,16,7,19,0.00
2013-6-21,75,71,65,68,65,61,95,80,63,30.03,29.75,22,10,35,0.49
2013-6-22,83,73,65,76,69,64,96,87,68,30.04,29.81,23,12,32,1.84
2013-6-23,81,73,64,74,68,63,95,85,70,29.95,29.75,26,8,39,0.30
2013-6-24,77,69,66,69,66,64,96,91,75,29.95,29.76,27,8,31,0.36
2013-6-25,80,72,65,76,70,63,98,93,85,29.86,29.70,19,6,23,2.19
2013-6-26,82,74,69,73,71,66,97,87,73,29.69,29.60,17,5,34,0.55
2013-6-27,85,76,68,73,68,61,96,76,51,29.73,29.63,19,8,30,0.00
2013-6-28,78,70,64,65,62,59,93,77,58,29.68,29.56,24,11,32,0.02
2013-6-29,71,66,63,65,62,59,96,89,81,29.74,29.55,15,5,25,0.22
2013-6-30,77,67,58,62,58,53,90,72,53,29.95,29.75,19,7,20,0.00
2013-7-1,77,66,53,59,55,50,91,69,44,30.03,29.95,21,6,27,0.00
2013-7-2,75,64,53,60,54,47,94,73,40,30.04,29.96,14,5,17,0.00
2013-7-3,72,62,49,63,56,48,97,83,69,30.02,29.95,8,2,10,0.00
2013-7-4,81,69,52,67,60,51,98,78,55,30.00,29.91,13,4,17,0.01
2013-7-5,82,72,60,68,64,58,95,77,57,29.97,29.89,16,7,21,0.00
2013-7-6,83,71,61,70,64,59,93,81,60,29.95,29.85,12,6,15,0.00
2013-7-7,86,76,65,73,69,63,96,81,62,29.88,29.81,13,6,17,0.00
2013-7-8,87,77,70,78,72,68,96,86,71,29.88,29.82,22,9,25,0.53
2013-7-9,82,77,71,77,74,70,97,91,80,29.88,29.75,19,7,23,0.12
2013-7-10,77,73,62,75,66,59,96,79,57,29.93,29.76,13,6,20,0.00
2013-7-11,79,68,56,64,59,55,97,77,52,30.05,29.94,7,2,12,0.00
2013-7-12,80,68,54,66,59,53,95,76,46,30.07,29.98,9,2,12,0.00
2013-7-13,80,68,54,67,61,53,96,80,56,30.07,29.99,12,4,15,0.01
2013-7-14,83,73,60,73,67,58,95,82,65,30.12,30.05,12,4,13,0.00
2013-7-15,87,77,66,77,72,64,96,84,68,30.17,30.09,7,3,10,0.00
2013-7-16,88,79,69,78,74,68,98,86,70,30.19,30.12,11,4,12,0.00
2013-7-17,89,81,72,79,75,70,97,82,63,30.21,30.07,10,3,15,0.00
2013-7-18,88,81,72,78,74,69,95,81,64,30.08,29.82,15,6,19,0.00
2013-7-19,88,80,68,75,72,64,88,76,62,29.82,29.66,20,9,22,0.00
2013-7-20,82,71,59,70,65,58,96,81,57,29.85,29.75,11,3,17,0.00
2013-7-21,82,70,61,73,66,60,96,87,71,29.86,29.76,14,6,22,0.01
2013-7-22,84,72,59,74,67,58,98,85,67,29.80,29.62,20,6,48,0.18
2013-7-23,76,67,57,63,59,54,96,76,53,29.90,29.65,15,5,18,0.00
2013-7-24,74,62,51,60,54,49,97,78,51,30.00,29.90,7,2,9,0.00
2013-7-25,78,65,50,67,59,49,97,82,63,30.02,29.91,14,6,18,0.02
2013-7-26,76,66,57,70,62,55,96,87,60,29.91,29.77,23,10,25,0.28
2013-7-27,61,56,53,55,50,46,94,80,61,29.89,29.84,18,8,23,0.00
2013-7-28,67,58,49,55,51,47,93,78,62,29.98,29.82,17,7,22,0.00
2013-7-29,76,61,50,62,55,48,95,81,58,30.08,29.98,8,2,12,0.00
2013-7-30,70,62,53,65,60,52,97,93,82,30.09,29.99,15,6,16,0.02
2013-7-31,78,67,59,68,64,57,98,88,70,29.99,29.88,11,3,16,0.01
2013-8-1,78,66,56,61,58,54,97,77,46,29.95,29.82,17,5,20,0.11
2013-8-2,80,70,60,69,63,59,96,80,60,29.88,29.77,10,4,13,0.00
2013-8-3,76,66,52,60,56,51,96,72,46,30.07,29.89,13,3,16,0.00
2013-8-4,77,65,50,63,56,49,94,75,44,30.14,30.02,7,2,11,0.00
2013-8-5,71,63,56,66,60,54,97,92,80,30.02,29.77,18,7,24,0.74
2013-8-6,81,72,65,74,69,64,98,92,77,29.81,29.71,10,5,13,0.02
2013-8-7,80,73,60,72,67,58,98,84,62,29.88,29.68,11,4,16,0.01
2013-8-8,79,67,55,67,62,55,100,84,58,29.96,29.88,11,2,16,0.00
2013-8-9,78,67,57,68,62,55,97,84,67,29.99,29.90,10,4,15,0.01
2013-8-10,75,64,53,61,56,51,95,77,54,30.08,29.99,11,4,15,0.00
2013-8-11,78,64,52,68,61,51,96,88,69,30.06,29.94,13,2,16,0.00
2013-8-12,80,70,60,71,64,56,96,83,59,29.95,29.82,12,5,16,0.00
2013-8-13,70,62,52,58,52,48,95,73,50,30.09,29.89,12,4,15,0.00
2013-8-14,73,59,44,59,51,43,97,78,47,30.16,30.06,8,1,10,0.00
2013-8-15,74,62,51,61,56,49,94,80,58,30.10,30.03,7,1,10,0.00
2013-8-16,80,65,50,62,56,48,96,75,43,30.12,30.06,7,1,10,0.00
2013-8-17,78,64,49,64,56,48,96,78,45,30.17,30.07,8,2,12,0.00
2013-8-18,79,65,50,64,57,48,96,78,53,30.14,30.02,8,2,12,0.00
2013-8-19,80,67,53,68,61,51,96,84,63,30.03,29.94,13,4,16,0.00
2013-8-20,82,70,58,71,64,57,98,84,63,30.00,29.91,14,6,18,0.01
2013-8-21,85,75,65,73,69,63,96,82,64,29.95,29.86,17,8,22,0.00
2013-8-22,74,69,60,70,66,59,96,91,81,30.03,29.89,17,4,34,0.55
2013-8-23,79,67,56,66,61,54,98,82,60,30.10,30.02,11,4,15,0.00
2013-8-24,82,68,53,72,63,51,96,85,68,30.16,30.06,12,5,15,0.00
2013-8-25,85,75,67,74,68,65,95,81,59,30.13,30.01,15,8,22,0.00
2013-8-26,87,76,66,77,70,64,96,83,65,30.04,29.87,16,7,18,0.00
2013-8-27,90,80,71,78,73,68,94,80,62,29.89,29.73,16,7,22,0.00
2013-8-28,83,76,67,76,72,66,95,86,74,29.93,29.75,7,3,11,0.00
2013-8-29,85,72,62,75,68,61,98,90,68,30.00,29.88,9,4,11,0.01
2013-8-30,93,78,68,80,73,67,97,85,55,29.88,29.65,12,5,19,0.16
2013-8-31,79,71,65,73,68,63,96,89,77,29.77,29.69,10,5,17,0.05
2013-9-1,84,71,61,74,66,59,98,84,55,29.77,29.64,13,5,21,0.01
2013-9-2,73,63,53,60,57,51,96,81,57,29.94,29.77,12,4,15,0.00
2013-9-3,75,60,46,59,53,45,97,80,52,30.04,29.93,8,1,10,0.01
2013-9-4,83,66,47,67,58,45,97,78,53,30.06,29.98,10,2,14,0.01
2013-9-5,76,67,58,65,62,55,97,84,63,30.15,30.02,15,6,17,0.00
2013-9-6,85,68,54,67,60,52,94,77,52,30.13,29.89,15,6,18,0.00
2013-9-7,89,75,63,74,66,61,93,77,54,29.90,29.78,13,5,17,0.00
2013-9-8,76,70,66,70,66,63,94,88,78,29.94,29.83,20,10,24,0.00
2013-9-9,94,77,64,77,70,63,98,79,51,29.85,29.69,13,7,17,0.00
2013-9-10,94,82,71,68,64,61,75,57,34,29.88,29.76,20,9,24,0.00
2013-9-11,83,73,66,67,64,61,90,73,54,29.97,29.86,12,3,17,0.00
2013-9-12,75,65,52,63,54,47,92,69,39,30.05,29.91,20,6,25,0.01
2013-9-13,68,55,42,46,40,36,90,62,32,30.16,30.05,14,3,16,0.00
2013-9-14,72,55,36,49,42,33,92,66,33,30.13,29.92,13,4,16,0.00
2013-9-15,59,55,48,55,51,45,94,88,67,30.15,29.88,12,4,15,0.62
2013-9-16,67,56,46,53,46,41,94,72,40,30.33,30.15,12,6,17,0.00
2013-9-17,69,56,40,56,49,38,94,79,55,30.27,30.01,17,5,22,0.01
2013-9-18,78,67,58,68,61,54,92,82,72,30.01,29.78,16,8,21,0.29
2013-9-19,91,74,66,71,67,64,93,81,47,29.80,29.62,20,8,31,0.71
2013-9-20,68,63,54,64,57,50,93,81,62,29.79,29.67,20,8,24,0.02
2013-9-21,64,54,46,51,47,43,93,78,53,29.90,29.79,15,6,20,0.00
2013-9-22,69,53,38,51,44,36,94,76,45,30.01,29.90,8,2,15,0.01
2013-9-23,72,56,41,50,46,39,93,73,44,30.04,29.93,13,7,19,0.01
2013-9-24,73,58,44,53,48,42,92,72,42,29.95,29.85,15,6,18,0.00
2013-9-25,74,58,44,55,47,42,94,72,37,29.92,29.84,10,4,13,0.00
2013-9-26,80,60,44,57,50,42,94,74,41,29.99,29.89,16,5,19,0.01
2013-9-27,82,64,48,55,48,43,92,63,26,30.05,29.93,17,8,21,0.00
2013-9-28,80,63,52,65,55,47,92,77,51,29.94,29.77,28,11,34,0.34
2013-9-29,71,55,42,54,44,40,95,71,33,30.01,29.91,7,2,9,0.01
2013-9-30,75,58,41,52,45,38,92,66,35,29.93,29.76,22,8,25,0.01
2013-10-1,82,66,54,61,57,51,93,74,47,29.89,29.78,18,8,23,0.00
2013-10-2,79,63,46,56,48,38,93,63,27,30.02,29.87,16,5,18,0.00
2013-10-3,75,65,55,69,61,49,95,89,72,29.86,29.73,13,6,17,0.27
2013-10-4,68,67,64,67,64,62,94,92,84,29.94,29.78,18,8,23,1.26
2013-10-5,73,66,54,69,62,44,95,88,68,29.81,29.67,18,7,20,0.09
2013-10-6,53,46,40,44,40,37,92,79,59,29.74,29.64,15,5,18,0.02
2013-10-7,70,53,40,48,44,38,93,73,41,30.02,29.72,17,6,21,0.00
2013-10-8,75,57,40,50,44,38,92,65,30,30.10,30.01,19,6,23,0.00
2013-10-9,73,58,43,50,43,38,92,63,28,30.14,30.04,13,5,18,0.00
2013-10-10,74,57,39,53,46,37,93,71,41,30.10,29.95,13,4,18,0.00
2013-10-11,76,61,49,58,52,46,92,74,47,29.96,29.80,26,9,30,0.00
2013-10-12,68,60,48,58,48,37,85,65,39,30.11,29.80,16,8,24,0.00
2013-10-13,62,49,37,41,35,32,85,62,33,30.35,30.11,12,3,16,0.00
2013-10-14,64,48,31,44,38,28,90,72,45,30.36,30.03,19,7,27,0.00
2013-10-15,62,53,48,59,47,41,93,81,62,30.02,29.70,20,11,30,0.20
2013-10-16,50,48,46,47,44,42,92,85,77,29.90,29.76,17,8,24,0.00
2013-10-17,56,46,37,44,41,34,92,82,48,29.88,29.77,11,4,14,0.11
2013-10-18,48,44,37,40,37,33,89,76,61,29.91,29.78,17,6,21,0.00
2013-10-19,52,41,33,39,35,30,90,80,49,29.88,29.72,19,6,28,0.06
2013-10-20,54,43,31,46,38,29,92,83,67,29.80,29.67,17,6,19,0.02
2013-10-21,48,39,31,41,29,22,84,69,46,29.94,29.75,20,9,25,0.00
2013-10-22,41,33,26,30,26,23,89,75,54,29.95,29.88,8,2,12,0.00
2013-10-23,41,35,26,32,26,22,90,73,49,30.01,29.93,15,7,19,0.00
2013-10-24,42,34,28,27,24,22,79,67,51,30.29,30.01,17,8,23,0.00
2013-10-25,52,39,26,31,25,21,86,61,38,30.36,29.96,24,10,32,0.00
2013-10-26,51,43,33,34,28,25,75,57,42,30.05,29.80,27,12,32,0.00
2013-10-27,54,40,25,32,28,21,88,64,39,30.04,29.88,21,6,22,0.00
2013-10-28,46,39,30,36,32,25,85,75,66,30.34,29.99,21,9,27,0.00
2013-10-29,58,46,35,40,35,29,85,68,45,30.33,30.06,16,9,21,0.00
2013-10-30,58,51,42,56,49,36,95,90,73,30.06,29.67,19,8,24,0.11
2013-10-31,61,54,42,59,52,39,94,92,86,29.66,29.24,23,11,25,0.33
2013-11-1,47,43,38,43,39,34,89,85,80,29.72,29.36,15,6,19,0.01
2013-11-2,48,39,30,37,33,27,91,80,62,30.12,29.72,18,7,18,0.00
2013-11-3,50,38,25,39,32,22,91,78,57,30.25,30.11,18,8,22,0.00
2013-11-4,53,47,38,44,40,34,83,74,65,30.14,29.98,26,12,31,0.00
2013-11-5,53,50,46,51,47,43,93,89,82,30.18,29.80,32,10,35,0.25
2013-11-6,55,43,31,54,38,26,93,83,67,30.16,29.65,26,14,30,0.26
2013-11-7,40,33,26,33,27,22,86,80,70,30.23,30.16,14,6,18,0.00
2013-11-8,46,37,24,36,29,21,90,75,57,30.28,29.77,24,10,34,0.00
2013-11-9,53,47,37,41,36,26,77,66,58,30.11,29.75,27,15,32,0.00
2013-11-10,47,39,30,31,29,26,84,68,51,30.31,30.11,23,9,27,0.00
2013-11-11,44,33,19,34,26,13,91,76,65,30.55,30.04,18,8,22,0.05
2013-11-12,28,20,14,18,13,9,80,74,61,30.74,30.56,15,7,18,0.00
2013-11-13,40,29,16,22,17,10,81,62,42,30.58,30.08,26,13,32,0.01
2013-11-14,48,38,30,30,25,18,72,60,47,30.08,29.86,20,11,24,0.00
2013-11-15,54,42,35,34,31,27,84,66,47,29.90,29.82,12,8,17,0.00
2013-11-16,57,48,36,53,46,32,93,90,82,29.81,29.42,32,17,40,0.06
2013-11-17,61,50,39,58,46,33,95,87,78,29.72,29.11,30,14,40,0.58
2013-11-18,39,34,26,33,27,22,89,77,61,30.24,29.72,26,15,34,0.00
2013-11-19,40,30,20,30,24,17,89,80,64,30.32,30.18,15,7,19,0.00
2013-11-20,38,34,31,35,30,27,93,84,75,30.20,30.02,18,11,26,0.30
2013-11-21,42,39,36,39,36,34,93,91,87,30.22,30.05,8,3,12,0.00
2013-11-22,38,30,23,35,25,14,92,80,66,30.47,30.22,17,7,20,0.03
2013-11-23,22,17,9,16,9,3,83,69,54,30.73,30.43,26,10,27,0.01
2013-11-24,26,17,7,10,6,2,83,65,41,30.71,30.30,18,9,22,0.00
2013-11-25,30,26,20,25,20,10,90,79,58,30.30,30.04,23,13,27,0.00
2013-11-26,31,24,8,26,16,1,85,73,59,30.23,30.02,22,9,32,0.00
2013-11-27,22,15,7,14,7,-1,80,72,64,30.30,30.20,15,8,20,0.00
2013-11-28,26,20,8,17,13,4,84,73,65,30.49,30.12,14,7,19,0.00
2013-11-29,30,20,4,22,14,0,87,77,64,30.60,30.34,16,6,18,0.00
2013-11-30,45,30,23,34,14,-100,89,70,62,30.32,30.00,15,-90,16,0.00
2013-12-1,39,32,27,31,27,23,89,82,67,30.11,29.94,9,3,11,0.00
2013-12-2,38,32,25,32,29,22,92,87,76,29.94,29.67,19,8,22,0.04
2013-12-3,40,37,34,39,36,32,95,94,92,29.67,29.60,13,7,17,0.02
2013-12-4,49,40,29,48,39,27,96,94,89,29.67,29.42,23,8,39,0.06
2013-12-5,29,19,14,26,13,8,89,77,67,30.28,29.67,24,12,31,0.00
2013-12-6,16,11,7,8,4,2,81,75,63,30.58,30.27,16,11,21,0.00
2013-12-7,15,8,1,4,0,-4,80,71,53,30.72,30.58,11,5,13,0.00
2013-12-8,20,16,10,17,11,2,90,80,66,30.62,29.96,16,7,16,0.00
2013-12-9,20,8,-8,17,3,-13,90,80,65,30.22,29.95,19,6,25,0.00
2013-12-10,17,12,-8,10,5,-12,85,73,63,30.28,29.96,22,11,34,0.00
2013-12-11,14,6,-9,11,0,-14,87,75,60,30.56,30.26,20,7,23,0.00
2013-12-12,16,8,-7,10,1,-13,82,75,68,30.53,30.19,22,8,27,0.00
2013-12-13,25,18,8,21,14,4,87,82,71,30.20,30.07,17,8,21,0.00
2013-12-14,24,21,16,20,17,12,88,85,77,30.11,29.97,19,10,22,0.00
2013-12-15,17,10,6,12,3,0,80,74,69,30.13,29.96,24,10,30,0.00
2013-12-16,16,10,5,13,5,-2,89,78,67,30.14,30.01,10,4,12,0.00
2013-12-17,32,23,16,25,17,11,90,80,64,30.10,29.95,34,14,35,0.01
2013-12-18,33,23,10,25,16,6,87,77,60,30.12,29.77,22,9,32,0.00
2013-12-19,32,28,20,30,25,17,92,87,79,29.90,29.77,17,8,22,0.00
2013-12-20,32,24,22,30,22,20,92,90,89,29.83,29.75,0,0,10,0.00
2013-12-21,27,25,23,25,23,21,93,92,91,29.85,29.66,11,4,12,0.01
2013-12-22,27,24,19,25,22,16,93,90,87,30.12,29.65,12,6,15,0.09
2013-12-23,19,2,-7,16,-3,-12,88,81,77,30.49,30.13,13,7,18,0.00
2013-12-24,13,-3,-14,10,-8,-18,89,80,76,30.59,30.31,13,6,15,0.00
2013-12-25,23,19,14,21,16,9,90,87,79,30.30,30.10,20,10,26,0.00
2013-12-26,28,22,12,24,17,7,89,83,79,30.21,30.11,16,4,22,0.03
2013-12-27,36,25,5,28,20,2,91,84,73,30.23,30.03,23,7,25,0.01
2013-12-28,40,34,25,32,29,21,90,80,71,30.05,29.73,20,11,24,0.07
2013-12-29,38,19,-4,30,14,-11,95,80,72,30.24,29.71,24,15,31,0.00
2013-12-30,4,-3,-11,-1,-10,-17,82,73,57,30.34,30.22,10,2,12,0.00
2013-12-31,7,2,-8,3,-2,-12,84,83,80,30.36,30.22,11,2,16,0.00
2014-1-1,10,6,2,6,1,-4,85,81,74,30.32,30.26,18,11,21,0.00
2014-1-2,11,5,-9,4,-1,-15,83,75,70,30.45,30.25,11,4,15,0.00